DFRAJ36 LOWW-LZDB

Flight info

Callsign DFRAJ36
Flight time 0h 42m
Altitude FL110
Route KOXE1D KOXER BERVA
Aircraft BE36/L-BDFGLORY/S

Departure

Time 2026-04-22 22:08
Airport Vienna International Airport (LOWW)

Arrival

Time 2026-04-22 22:50
Airport Slávnica-Dubnica nad Váhom Airfield (LZDB)
Time Latitude Longitude Altitude Speed Heading
2026-04-22 21:52 48.12151 16.54840 631 ft 0 kts 279°
2026-04-22 22:00 48.12150 16.54822 631 ft 6 kts 245°
2026-04-22 22:00 48.12083 16.54827 631 ft 17 kts 114°
2026-04-22 22:01 48.12017 16.55043 631 ft 26 kts 117°
2026-04-22 22:01 48.11920 16.55329 631 ft 33 kts 115°
2026-04-22 22:01 48.11826 16.55653 630 ft 32 kts 115°
2026-04-22 22:01 48.11733 16.55940 630 ft 28 kts 114°
2026-04-22 22:02 48.11641 16.56224 631 ft 29 kts 115°
2026-04-22 22:02 48.11550 16.56516 631 ft 30 kts 115°
2026-04-22 22:02 48.11453 16.56806 631 ft 31 kts 115°
2026-04-22 22:02 48.11355 16.57111 631 ft 31 kts 116°
2026-04-22 22:03 48.11252 16.57420 631 ft 31 kts 117°
2026-04-22 22:03 48.11154 16.57721 631 ft 31 kts 115°
2026-04-22 22:03 48.11059 16.58031 630 ft 32 kts 120°
2026-04-22 22:03 48.10906 16.58255 630 ft 32 kts 159°
2026-04-22 22:04 48.10693 16.58355 630 ft 32 kts 162°
2026-04-22 22:04 48.10480 16.58448 630 ft 32 kts 165°
2026-04-22 22:04 48.10266 16.58541 630 ft 32 kts 164°
2026-04-22 22:04 48.10050 16.58612 630 ft 32 kts 185°
2026-04-22 22:05 48.09978 16.58655 630 ft 12 kts 13°
2026-04-22 22:05 48.09997 16.58657 630 ft 0 kts 351°
2026-04-22 22:06 48.10004 16.58655 630 ft 5 kts 350°
2026-04-22 22:06 48.10175 16.58589 631 ft 47 kts 348°
2026-04-22 22:06 48.10594 16.58407 631 ft 77 kts 344°
2026-04-22 22:07 48.11162 16.58167 635 ft 89 kts 342°
2026-04-22 22:07 48.11756 16.57927 664 ft 89 kts 343°
2026-04-22 22:07 48.12374 16.57682 800 ft 92 kts 342°
2026-04-22 22:07 48.12965 16.57423 1037 ft 87 kts 342°
2026-04-22 22:08 48.13542 16.57170 1208 ft 90 kts 342°
2026-04-22 22:08 48.14195 16.56886 1257 ft 106 kts 343°
2026-04-22 22:08 48.14924 16.56575 1400 ft 110 kts 344°
2026-04-22 22:08 48.15657 16.56263 1553 ft 111 kts 344°
2026-04-22 22:09 48.16390 16.55951 1721 ft 110 kts 344°
2026-04-22 22:09 48.17141 16.55937 1864 ft 112 kts 19°
2026-04-22 22:09 48.17659 16.56815 2015 ft 122 kts 63°
2026-04-22 22:09 48.17707 16.58133 2173 ft 129 kts 85°
2026-04-22 22:10 48.17605 16.59508 2319 ft 131 kts 89°
2026-04-22 22:10 48.17470 16.60860 2458 ft 132 kts 90°
2026-04-22 22:10 48.17320 16.62218 2577 ft 133 kts 90°
2026-04-22 22:10 48.17163 16.63576 2713 ft 133 kts 90°
2026-04-22 22:11 48.16999 16.64954 2855 ft 134 kts 90°
2026-04-22 22:11 48.16836 16.66331 2987 ft 134 kts 90°
2026-04-22 22:11 48.16672 16.67704 3119 ft 134 kts 90°
2026-04-22 22:11 48.16504 16.69091 3256 ft 135 kts 90°
2026-04-22 22:12 48.16357 16.70509 3387 ft 131 kts 78°
2026-04-22 22:12 48.16525 16.71810 3534 ft 125 kts 62°
2026-04-22 22:12 48.16771 16.73062 3670 ft 125 kts 61°
2026-04-22 22:12 48.17021 16.74301 3810 ft 125 kts 62°
2026-04-22 22:13 48.17269 16.75546 3979 ft 124 kts 62°
2026-04-22 22:13 48.17515 16.76783 4161 ft 123 kts 62°
2026-04-22 22:13 48.17758 16.78003 4318 ft 123 kts 62°
2026-04-22 22:13 48.17979 16.79237 4457 ft 128 kts 73°
2026-04-22 22:14 48.17824 16.80633 4623 ft 137 kts 94°
2026-04-22 22:14 48.17547 16.81996 4778 ft 137 kts 95°
2026-04-22 22:14 48.17260 16.83364 4929 ft 137 kts 95°
2026-04-22 22:14 48.16973 16.84734 5077 ft 137 kts 95°
2026-04-22 22:15 48.16682 16.86127 5223 ft 138 kts 95°
2026-04-22 22:15 48.16395 16.87494 5382 ft 137 kts 95°
2026-04-22 22:15 48.16112 16.88846 5540 ft 137 kts 95°
2026-04-22 22:15 48.15831 16.90190 5665 ft 138 kts 95°
2026-04-22 22:16 48.15548 16.91537 5803 ft 138 kts 95°
2026-04-22 22:16 48.15256 16.92924 5957 ft 137 kts 94°
2026-04-22 22:16 48.14974 16.94271 6094 ft 138 kts 94°
2026-04-22 22:16 48.14693 16.95612 6237 ft 138 kts 94°
2026-04-22 22:17 48.14404 16.96988 6378 ft 138 kts 94°
2026-04-22 22:17 48.14117 16.98355 6522 ft 138 kts 94°
2026-04-22 22:17 48.13826 16.99734 6676 ft 138 kts 93°
2026-04-22 22:17 48.13554 17.01038 6804 ft 138 kts 94°
2026-04-22 22:18 48.13275 17.02357 6934 ft 137 kts 94°
2026-04-22 22:18 48.13013 17.03729 7056 ft 132 kts 82°
2026-04-22 22:18 48.13247 17.04859 7177 ft 114 kts 42°
2026-04-22 22:18 48.13786 17.05621 7306 ft 110 kts 31°
2026-04-22 22:19 48.14338 17.06269 7578 ft 100 kts 29°
2026-04-22 22:19 48.14887 17.06868 7801 ft 96 kts 28°
2026-04-22 22:19 48.15420 17.07426 7987 ft 96 kts 28°
2026-04-22 22:19 48.15962 17.07982 8158 ft 97 kts 28°
2026-04-22 22:20 48.16519 17.08547 8340 ft 98 kts 28°
2026-04-22 22:20 48.17080 17.09110 8513 ft 99 kts 28°
2026-04-22 22:20 48.17639 17.09672 8702 ft 98 kts 28°
2026-04-22 22:20 48.18180 17.10213 8865 ft 99 kts 28°
2026-04-22 22:21 48.18726 17.10758 8994 ft 102 kts 28°
2026-04-22 22:21 48.19350 17.11379 9022 ft 113 kts 28°
2026-04-22 22:21 48.20009 17.12037 9020 ft 121 kts 29°
2026-04-22 22:21 48.20696 17.12726 9013 ft 126 kts 29°
2026-04-22 22:22 48.21416 17.13448 9008 ft 130 kts 29°
2026-04-22 22:22 48.22170 17.14205 9005 ft 132 kts 29°
2026-04-22 22:22 48.22931 17.14966 9008 ft 134 kts 29°
2026-04-22 22:22 48.23684 17.15721 9009 ft 135 kts 29°
2026-04-22 22:23 48.24444 17.16482 9011 ft 135 kts 29°
2026-04-22 22:23 48.25221 17.17260 9011 ft 136 kts 29°
2026-04-22 22:23 48.25994 17.18031 9010 ft 137 kts 29°
2026-04-22 22:23 48.26741 17.18778 9016 ft 137 kts 29°
2026-04-22 22:24 48.27495 17.19533 9015 ft 138 kts 29°
2026-04-22 22:24 48.28262 17.20299 9015 ft 139 kts 30°
2026-04-22 22:24 48.29060 17.21100 9011 ft 139 kts 30°
2026-04-22 22:24 48.29821 17.21863 9010 ft 139 kts 30°
2026-04-22 22:25 48.30583 17.22627 9000 ft 139 kts 29°
2026-04-22 22:25 48.31346 17.23392 9000 ft 138 kts 29°
2026-04-22 22:25 48.32150 17.24198 9009 ft 138 kts 29°
2026-04-22 22:25 48.32903 17.24952 9002 ft 138 kts 29°
2026-04-22 22:26 48.33641 17.25692 9008 ft 138 kts 29°
2026-04-22 22:26 48.34386 17.26439 9001 ft 138 kts 29°
2026-04-22 22:26 48.35182 17.27238 9004 ft 138 kts 29°
2026-04-22 22:26 48.35922 17.27982 9003 ft 138 kts 29°
2026-04-22 22:27 48.36665 17.28727 8998 ft 139 kts 29°
2026-04-22 22:27 48.37410 17.29475 8996 ft 139 kts 29°
2026-04-22 22:27 48.38204 17.30274 8997 ft 139 kts 29°
2026-04-22 22:27 48.38942 17.31016 8989 ft 138 kts 29°
2026-04-22 22:28 48.39675 17.31753 8990 ft 138 kts 29°
2026-04-22 22:28 48.40409 17.32492 8995 ft 138 kts 29°
2026-04-22 22:28 48.41169 17.33257 8998 ft 138 kts 30°
2026-04-22 22:28 48.41925 17.34020 9000 ft 138 kts 30°
2026-04-22 22:29 48.42658 17.34759 8999 ft 139 kts 29°
2026-04-22 22:29 48.43396 17.35504 8990 ft 139 kts 29°
2026-04-22 22:29 48.44131 17.36246 8991 ft 138 kts 29°
2026-04-22 22:29 48.44910 17.37034 8987 ft 138 kts 29°
2026-04-22 22:30 48.45644 17.37774 8988 ft 138 kts 29°
2026-04-22 22:30 48.46382 17.38519 8984 ft 138 kts 29°
2026-04-22 22:30 48.47133 17.39276 8982 ft 138 kts 29°
2026-04-22 22:30 48.47933 17.40086 8976 ft 138 kts 29°
2026-04-22 22:31 48.48678 17.40836 8977 ft 138 kts 29°
2026-04-22 22:31 48.49417 17.41585 8976 ft 137 kts 29°
2026-04-22 22:31 48.50155 17.42331 8975 ft 137 kts 30°
2026-04-22 22:31 48.50942 17.43127 8977 ft 137 kts 29°
2026-04-22 22:32 48.51673 17.43868 8977 ft 137 kts 29°
2026-04-22 22:32 48.52400 17.44606 8979 ft 137 kts 29°
2026-04-22 22:32 48.53130 17.45345 8977 ft 137 kts 29°
2026-04-22 22:32 48.53880 17.46104 8981 ft 136 kts 29°
2026-04-22 22:33 48.54631 17.46866 8984 ft 136 kts 29°
2026-04-22 22:33 48.55361 17.47606 8980 ft 137 kts 29°
2026-04-22 22:33 48.56095 17.48351 8979 ft 137 kts 29°
2026-04-22 22:33 48.56834 17.49101 8980 ft 137 kts 29°
2026-04-22 22:34 48.57620 17.49900 8981 ft 137 kts 29°
2026-04-22 22:34 48.58362 17.50652 8978 ft 137 kts 29°
2026-04-22 22:34 48.59097 17.51401 8983 ft 137 kts 29°
2026-04-22 22:34 48.59840 17.52154 8981 ft 137 kts 29°
2026-04-22 22:35 48.60626 17.52953 8984 ft 137 kts 29°
2026-04-22 22:35 48.61361 17.53700 8985 ft 137 kts 29°
2026-04-22 22:35 48.62048 17.54593 8982 ft 139 kts 40°
2026-04-22 22:35 48.62668 17.55633 8980 ft 140 kts 41°
2026-04-22 22:36 48.63313 17.56725 8984 ft 140 kts 41°
2026-04-22 22:36 48.63928 17.57769 8987 ft 140 kts 41°
2026-04-22 22:36 48.64545 17.58813 8985 ft 140 kts 41°
2026-04-22 22:36 48.65164 17.59859 8985 ft 139 kts 41°
2026-04-22 22:37 48.65828 17.60979 8841 ft 148 kts 41°
2026-04-22 22:37 48.66528 17.62163 8661 ft 156 kts 41°
2026-04-22 22:37 48.67263 17.63409 8465 ft 161 kts 42°
2026-04-22 22:37 48.67994 17.64660 8269 ft 156 kts 42°
2026-04-22 22:38 48.68704 17.65876 8094 ft 151 kts 43°
2026-04-22 22:38 48.69390 17.67042 7924 ft 146 kts 42°
2026-04-22 22:38 48.70074 17.68204 7753 ft 142 kts 42°
2026-04-22 22:38 48.70745 17.69343 7592 ft 139 kts 41°
2026-04-22 22:39 48.71396 17.70449 7432 ft 136 kts 41°
2026-04-22 22:39 48.72016 17.71502 7287 ft 134 kts 41°
2026-04-22 22:39 48.72625 17.72539 7140 ft 132 kts 41°
2026-04-22 22:39 48.73231 17.73567 6995 ft 131 kts 41°
2026-04-22 22:40 48.73839 17.74602 6842 ft 130 kts 41°
2026-04-22 22:40 48.74438 17.75623 6692 ft 128 kts 41°
2026-04-22 22:40 48.75022 17.76617 6552 ft 127 kts 41°
2026-04-22 22:40 48.75614 17.77622 6411 ft 128 kts 41°
2026-04-22 22:41 48.76216 17.78646 6270 ft 130 kts 41°
2026-04-22 22:41 48.76814 17.79666 6148 ft 130 kts 41°
2026-04-22 22:41 48.77417 17.80693 6012 ft 131 kts 41°
2026-04-22 22:41 48.78028 17.81737 5868 ft 133 kts 41°
2026-04-22 22:42 48.78648 17.82795 5724 ft 134 kts 41°
2026-04-22 22:42 48.79266 17.83850 5581 ft 135 kts 41°
2026-04-22 22:42 48.79890 17.84915 5433 ft 136 kts 41°
2026-04-22 22:42 48.80522 17.85995 5284 ft 137 kts 41°
2026-04-22 22:43 48.81159 17.87086 5133 ft 138 kts 41°
2026-04-22 22:43 48.81795 17.88177 4981 ft 139 kts 41°
2026-04-22 22:43 48.82437 17.89275 4828 ft 140 kts 41°
2026-04-22 22:43 48.83081 17.90377 4674 ft 141 kts 41°
2026-04-22 22:44 48.83738 17.91501 4518 ft 142 kts 42°
2026-04-22 22:44 48.84391 17.92620 4359 ft 143 kts 42°
2026-04-22 22:44 48.85048 17.93746 4202 ft 144 kts 42°
2026-04-22 22:44 48.85713 17.94889 4041 ft 145 kts 42°
2026-04-22 22:45 48.86394 17.96057 3878 ft 146 kts 42°
2026-04-22 22:45 48.87062 17.97204 3722 ft 147 kts 42°
2026-04-22 22:45 48.87731 17.98353 3575 ft 147 kts 42°
2026-04-22 22:45 48.88425 17.99545 3412 ft 149 kts 42°
2026-04-22 22:46 48.89124 18.00745 3250 ft 150 kts 42°
2026-04-22 22:46 48.89811 18.01925 3126 ft 149 kts 43°
2026-04-22 22:46 48.90485 18.03085 2977 ft 150 kts 43°
2026-04-22 22:46 48.91170 18.04263 2832 ft 150 kts 43°
2026-04-22 22:47 48.91878 18.05482 2660 ft 151 kts 44°
2026-04-22 22:47 48.92559 18.06655 2512 ft 152 kts 44°
2026-04-22 22:47 48.93242 18.07832 2353 ft 153 kts 44°
2026-04-22 22:47 48.93929 18.09016 2197 ft 153 kts 45°
2026-04-22 22:48 48.94652 18.10263 2028 ft 154 kts 45°
2026-04-22 22:48 48.95346 18.11463 1864 ft 155 kts 45°
2026-04-22 22:48 48.96026 18.12639 1695 ft 146 kts 46°
2026-04-22 22:48 48.96658 18.13771 1495 ft 137 kts 47°
2026-04-22 22:49 48.97252 18.14848 1315 ft 124 kts 47°
2026-04-22 22:49 48.97746 18.15744 1167 ft 104 kts 46°
2026-04-22 22:49 48.98177 18.16520 1075 ft 95 kts 44°
2026-04-22 22:49 48.98595 18.17262 984 ft 95 kts 44°
2026-04-22 22:50 48.99023 18.18027 916 ft 90 kts 44°
2026-04-22 22:50 48.99408 18.18742 786 ft 82 kts 47°
2026-04-22 22:50 48.99694 18.19255 779 ft 36 kts 48°
2026-04-22 22:50 48.99785 18.19293 779 ft 15 kts 248°
2026-04-22 22:51 48.99756 18.19149 779 ft 20 kts 259°
2026-04-22 22:51 48.99747 18.18968 778 ft 9 kts 266°
2026-04-22 22:51 48.99745 18.18913 777 ft 0 kts 263°